[[{"header":{"parameterUnit":"m.s-1","parameterCategory":1,"la1":30.2991,"la2":30.254,"lo1":-89.0895,"lo2":-89.0444,"dy":0.0017,"dx":0.0017,"nx":28,"ny":28,"refTime":"2024-02-07T03:00:00:Z","depth":0,"parameterNumber":2,"parameterNumberName":"U-component_of_WINDS"},"data":[0,0,0,0,0,0,0,0,0,0,0,0,0,0,0,0,0,0,0,0,0,0,0,0,0,0,0,0,0,0,0,0,0,0,0,0,0,0,0,0,0,0,0,0,0,0,0,0,0,0,0,0,0,0,0,0,0,0,-4.4521,-4.4522,0,-4.4592,-4.4593,-4.4593,-4.4548,-4.4546,-4.4544,-4.4542,-4.4614,-4.4618,-4.4622,0,0,0,0,0,0,0,0,0,0,0,0,0,-4.4347,-4.435,-4.4521,-4.4522,-4.4523,-4.4592,-4.4593,-4.4594,-4.4548,-4.4546,-4.4543,-4.4541,-4.4613,-4.4618,-4.4622,0,0,0,0,0,0,0,0,0,0,0,0,0,-4.4421,-4.4352,-4.4521,-4.4508,-4.4508,-4.4591,-4.4593,-4.4594,-4.4549,-4.4546,-4.4543,-4.454,-4.4611,-4.4617,-4.4623,-4.4722,0,0,-4.4641,-4.4643,0,0,0,0,0,0,0,0,-4.4417,-4.4427,-4.4509,-4.4509,-4.4509,-4.4558,-4.4558,-4.4637,-4.455,-4.4533,-4.4542,-4.4538,-4.4598,-4.4605,-4.4625,-4.4726,-4.4729,-4.4641,-4.4645,-4.4647,-4.4649,0,0,0,0,0,0,0,-4.4412,-4.4424,-4.4549,-4.4511,-4.4511,-4.45,-4.4507,-4.4573,-4.4583,-4.4535,-4.4531,-4.4541,-4.4597,-4.4619,-4.4626,-4.473,-4.4641,-4.4646,-4.465,-4.4652,-4.4915,-4.4919,0,0,0,0,0,0,-4.4407,-4.442,-4.4547,-4.4551,-4.4454,-4.4505,-4.4513,-4.4545,-4.4582,-4.4584,-4.4543,-4.4538,-4.4611,-4.462,-4.4629,-4.4746,-4.4647,-4.4653,-4.4656,-4.4912,-4.4916,-4.492,0,0,0,0,0,0,-4.4404,-4.4419,-4.4544,-4.4485,-4.45,-4.4512,-4.4548,-4.4548,-4.457,-4.4588,-4.459,-4.4564,-4.4609,-4.462,-4.4699,-4.4748,-4.4655,-4.4661,-4.4908,-4.4913,-4.4918,-4.4983,0,0,0,0,0,0,-4.4399,-4.4418,-4.4456,-4.4486,-4.4503,-4.4613,-4.4551,-4.4552,-4.4581,-4.4575,-4.4608,-4.461,-4.4607,-4.4691,-4.4705,-4.4755,-4.4665,-4.4903,-4.491,-4.4916,-4.4977,-4.499,-4.5002,0,0,0,0,0,-4.4393,-4.4471,-4.4458,-4.4473,-4.455,-4.4616,-4.4626,-4.462,-4.4585,-4.4623,-4.4634,-4.4609,-4.4742,-4.4699,-4.4715,-4.4767,-4.49,-4.4908,-4.4916,-4.4971,-4.4987,-4.5001,0,0,0,0,0,0,-4.4446,-4.4475,-4.446,-4.455,-4.4581,-4.4608,-4.4655,-4.4638,-4.4679,-4.4672,-4.4664,-4.4672,-4.4754,-4.4769,-4.4721,-4.4865,-4.4815,-4.4827,-4.4852,-4.4867,-4.488,-4.4873,-4.467,0,0,0,0,0,-4.4468,-4.4519,-4.4542,-4.4619,-4.4635,-4.4643,-4.4672,-4.4665,-4.4696,-4.4709,-4.4726,-4.4758,-4.4806,-4.4838,-4.4884,-4.498,-4.4986,-4.5024,-4.5036,-4.5046,-4.5055,-4.5106,-4.5123,-4.4946,-4.4946,-4.4946,0,0,-4.4514,-4.4536,-4.4569,-4.463,-4.4653,-4.4706,-4.4654,-4.4712,-4.4751,-4.4718,-4.4792,-4.4807,-4.4842,-4.4929,-4.4969,-4.4944,-4.5106,-4.5056,-4.5064,-4.5068,-4.5116,-4.5133,-4.5148,-4.4951,-4.495,-4.4949,0,0,-4.4624,-4.4647,-4.4713,-4.4738,-4.4774,-4.4779,-4.4795,-4.4825,-4.4833,-4.4909,-4.4885,-4.4932,-4.5016,-4.5041,-4.5065,-4.5188,-4.5166,-4.5204,-4.5267,-4.5317,-4.5331,-4.5343,-4.5385,-4.5401,-4.5213,-4.5213,-4.5213,0,-4.4676,-4.4755,-4.475,-4.481,-4.4837,-4.4811,-4.4878,-4.4903,-4.4951,-4.4971,-4.4944,-4.5049,-4.507,-4.5163,-4.5193,-4.5214,-4.5232,-4.5198,-4.5329,-4.5342,-4.5353,-4.5393,-4.5409,-4.5217,-4.5217,-4.5217,-4.5216,0,-4.4817,-4.4872,-4.4921,-4.4969,-4.5003,-4.5067,-4.5071,-4.5106,-4.5098,-4.5106,-4.5184,-4.5209,-4.5259,-4.5282,-4.5274,-4.5374,-4.5357,-4.533,-4.5279,-4.5374,-4.5411,-4.5427,-4.5223,-4.5222,-4.5221,-4.522,0,0,-4.4958,-4.5005,-4.5023,-4.5044,-4.5083,-4.5125,-4.5189,-4.5238,-4.5267,-4.5303,-4.5355,-4.5428,-4.5403,-4.543,-4.5426,-4.547,-4.5564,-4.5437,-4.5438,-4.5458,-4.5674,-4.5692,-4.571,-4.5552,-4.5555,-4.5557,-4.5671,0,-4.5069,-4.5178,-4.5176,-4.5277,-4.5328,-4.5305,-4.536,-4.539,-4.54,-4.5444,-4.5456,-4.5507,-4.5471,-4.5487,-4.5531,-4.5544,-4.5607,-4.5536,-4.5598,-4.5601,-4.5587,-4.573,-4.5749,-4.5855,-4.5685,-4.5688,-4.569,0,-4.5212,-4.5252,-4.5358,-4.539,-4.5411,-4.546,-4.5506,-4.5549,-4.5583,-4.5587,-4.5619,-4.5608,-4.5672,-4.5623,-4.571,-4.5662,-4.5688,-4.5699,-4.5703,-4.5706,-4.5648,-4.5734,-4.5889,-4.5904,-4.5713,-4.5711,-4.571,0,-4.5302,-4.5383,-4.5457,-4.5477,-4.5516,-4.5551,-4.5569,-4.56,-4.563,-4.5671,-4.569,-4.5738,-4.5763,-4.5801,-4.5803,-4.5767,-4.5891,-4.5842,-4.5895,-4.5895,-4.592,-4.5917,-4.6078,-4.5942,-4.5942,-4.5941,-4.5941,0,-4.5423,-4.5488,-4.5498,-4.5543,-4.5615,-4.5614,-4.5686,-4.5701,-4.573,-4.5777,-4.5762,-4.5807,-4.5809,-4.5855,-4.5858,-4.593,-4.5942,-4.5947,-4.5946,-4.5946,-4.5945,-4.596,-4.5952,-4.5946,-4.5945,-4.5944,-4.5943,0,-4.5534,-4.5543,-4.5622,-4.5654,-4.5664,-4.5716,-4.5743,-4.5786,-4.5796,-4.5857,-4.5871,-4.5886,-4.594,-4.5947,-4.601,-4.6012,-4.6098,-4.6091,-4.6086,-4.6084,-4.6136,-4.613,-4.6309,-4.6332,-4.6184,-4.6186,-4.6187,0,-4.561,-4.5659,-4.5697,-4.5728,-4.5748,-4.5798,-4.5829,-4.5831,-4.5864,-4.5907,-4.5945,-4.5998,-4.6039,-4.6127,-4.6144,-4.6192,-4.6184,-4.6244,-4.6191,-4.619,-4.6182,-4.6178,-4.6182,-4.6253,-4.6255,-4.6256,-4.6257,0,-4.5742,-4.5744,-4.5789,-4.5837,-4.5874,-4.5912,-4.5947,-4.5973,-4.5979,-4.6017,-4.6072,-4.6105,-4.617,-4.6222,-4.627,-4.6289,-4.6274,-4.6274,-4.6289,-4.6288,-4.6282,-4.6283,-4.611,-4.6269,-4.6268,-4.6267,-4.6266,-4.6266,-4.5836,-4.5878,-4.5912,-4.5963,-4.599,-4.6023,-4.6065,-4.6081,-4.6127,-4.618,-4.6179,-4.6239,-4.6273,-4.6336,-4.6359,-4.6406,-4.6387,-4.6408,-4.6413,-4.6418,-4.6422,-4.6277,-4.6416,-4.6415,-4.6415,-4.6415,-4.6415,0,-4.5965,-4.5986,-4.6033,-4.6083,-4.6123,-4.6107,-4.6146,-4.618,-4.6234,-4.6267,-4.6309,-4.6372,-4.6423,-4.6445,-4.6496,-4.6529,-4.6523,-4.6542,-4.6538,-4.6542,-4.6438,-4.6419,-4.6546,-4.6546,-4.6546,-4.6546,-4.6546,-4.6546,-4.6036,-4.6108,-4.6115,-4.62,-4.622,-4.6279,-4.6302,-4.6333,-4.636,-4.6431,-4.6474,-4.6488,-4.6517,-4.657,-4.6616,-4.6621,-4.6639,-4.666,-4.6662,-4.6563,-4.655,-4.6537,-4.6519,-4.6665,-4.6665,-4.6762,-4.6763,-4.6763]},{"header":{"parameterUnit":"m.s-1","parameterCategory":1,"la1":30.2991,"la2":30.254,"lo1":-89.0895,"lo2":-89.0444,"dy":0.0017,"dx":0.0017,"nx":28,"ny":28,"refTime":"2024-02-07T03:00:00:Z","depth":0,"parameterNumber":3,"parameterNumberName":"V-component_of_WINDS"},"data":[0,0,0,0,0,0,0,0,0,0,0,0,0,0,0,0,0,0,0,0,0,0,0,0,0,0,0,0,0,0,0,0,0,0,0,0,0,0,0,0,0,0,0,0,0,0,0,0,0,0,0,0,0,0,0,0,0,0,1.3467,1.3467,0,1.35,1.35,1.3501,1.353,1.3531,1.3531,1.3531,1.3563,1.3563,1.3564,0,0,0,0,0,0,0,0,0,0,0,0,0,1.343,1.3431,1.3467,1.3467,1.3468,1.35,1.35,1.3501,1.353,1.3531,1.3531,1.3532,1.3563,1.3563,1.3564,0,0,0,0,0,0,0,0,0,0,0,0,0,1.3453,1.3431,1.3467,1.3487,1.3489,1.35,1.35,1.3501,1.353,1.3531,1.3531,1.3532,1.3563,1.3563,1.3564,1.3558,0,0,1.3566,1.3567,0,0,0,0,0,0,0,0,1.3451,1.3454,1.3483,1.3485,1.3488,1.3512,1.3499,1.352,1.353,1.3514,1.3531,1.3532,1.3545,1.3548,1.3552,1.3559,1.3561,1.3566,1.3567,1.3567,1.3567,0,0,0,0,0,0,0,1.345,1.3453,1.348,1.3484,1.3486,1.3494,1.3498,1.3503,1.3526,1.3516,1.3518,1.3522,1.3547,1.3552,1.3553,1.3561,1.3566,1.3567,1.3568,1.3568,1.3567,1.3566,0,0,0,0,0,0,1.3445,1.3451,1.3479,1.3481,1.3471,1.3494,1.3498,1.3503,1.3526,1.353,1.3521,1.3523,1.355,1.3552,1.3555,1.355,1.3567,1.3568,1.3568,1.3567,1.3566,1.3566,0,0,0,0,0,0,1.3444,1.3448,1.3478,1.3467,1.3471,1.3494,1.3499,1.3504,1.3509,1.353,1.3535,1.3522,1.3551,1.3554,1.3557,1.3552,1.3568,1.3569,1.3568,1.3567,1.3566,1.354,0,0,0,0,0,0,1.3443,1.3447,1.3445,1.3467,1.3472,1.348,1.3499,1.3504,1.351,1.3513,1.3532,1.3536,1.3551,1.3556,1.3558,1.3553,1.357,1.3568,1.3567,1.3566,1.3542,1.3539,1.3536,0,0,0,0,0,1.3442,1.3435,1.3444,1.3448,1.3469,1.3479,1.3482,1.3501,1.351,1.3508,1.3522,1.3535,1.3552,1.3556,1.3559,1.3554,1.3569,1.3568,1.3567,1.3543,1.3539,1.3536,0,0,0,0,0,0,1.3411,1.3438,1.3449,1.3449,1.3462,1.3484,1.3482,1.3496,1.3506,1.3508,1.3529,1.3533,1.3535,1.3545,1.3549,1.355,1.3562,1.3562,1.3544,1.354,1.3538,1.3535,1.357,0,0,0,0,0,1.3405,1.3411,1.3434,1.3432,1.3438,1.3459,1.3464,1.3477,1.3491,1.3496,1.3511,1.3523,1.3532,1.3536,1.3545,1.3543,1.3549,1.3541,1.3539,1.3536,1.3535,1.3537,1.3534,1.3562,1.3562,1.3562,0,0,1.3391,1.3406,1.3409,1.3427,1.3438,1.3444,1.3463,1.3469,1.3474,1.3497,1.3502,1.3513,1.3529,1.353,1.3532,1.3538,1.3529,1.3535,1.3533,1.3533,1.3536,1.3533,1.3531,1.3562,1.3562,1.3562,0,0,1.3369,1.3381,1.3382,1.3393,1.3411,1.3425,1.3425,1.3446,1.3455,1.3461,1.3479,1.3485,1.3498,1.3509,1.3516,1.3501,1.3514,1.3503,1.3488,1.349,1.3487,1.3486,1.3481,1.3479,1.3502,1.3502,1.3502,0,1.3349,1.3359,1.338,1.3385,1.3393,1.3415,1.3417,1.3427,1.3446,1.345,1.3458,1.3477,1.3488,1.3494,1.349,1.3495,1.3496,1.3501,1.3486,1.3485,1.3483,1.3479,1.3477,1.3501,1.3501,1.3501,1.3501,0,1.3335,1.3342,1.3341,1.336,1.3368,1.337,1.3392,1.3397,1.341,1.3423,1.343,1.3445,1.3458,1.346,1.3472,1.3468,1.3472,1.3482,1.3495,1.3479,1.3475,1.3474,1.3499,1.3499,1.3499,1.35,0,0,1.3294,1.3326,1.3325,1.3335,1.3357,1.3363,1.3367,1.3381,1.3385,1.3398,1.3403,1.3415,1.3425,1.3434,1.3447,1.3448,1.3437,1.3459,1.346,1.3455,1.3434,1.3426,1.3424,1.3446,1.3445,1.3445,1.3433,0,1.3276,1.3286,1.3306,1.3309,1.3317,1.3339,1.3344,1.3357,1.3371,1.3379,1.3393,1.3402,1.3415,1.342,1.3422,1.3438,1.3433,1.3439,1.3451,1.3451,1.3447,1.3422,1.3414,1.3402,1.3432,1.3432,1.3432,0,1.3257,1.327,1.3275,1.3298,1.3302,1.3305,1.332,1.3328,1.3344,1.3354,1.3364,1.338,1.3386,1.3398,1.3408,1.3411,1.3417,1.3426,1.3426,1.3428,1.344,1.3425,1.3398,1.3397,1.343,1.343,1.343,0,1.3228,1.3246,1.3252,1.326,1.3286,1.3289,1.33,1.3317,1.3325,1.3338,1.3343,1.3356,1.3364,1.3374,1.3393,1.3399,1.3401,1.3414,1.3409,1.3409,1.3408,1.3408,1.3383,1.3411,1.3411,1.3411,1.3411,0,1.3207,1.3209,1.324,1.3243,1.3247,1.3269,1.3272,1.3286,1.3301,1.3308,1.3328,1.3334,1.3358,1.3367,1.3382,1.3388,1.3391,1.3399,1.3403,1.3398,1.3397,1.3402,1.3404,1.3411,1.3411,1.3411,1.3411,0,1.3175,1.3195,1.3203,1.3229,1.3235,1.3237,1.3259,1.3263,1.3278,1.3287,1.329,1.3314,1.3325,1.3345,1.3362,1.3372,1.3376,1.3382,1.337,1.3373,1.3368,1.3368,1.3346,1.3345,1.3373,1.3372,1.3372,0,1.316,1.3163,1.3189,1.3195,1.3206,1.3216,1.3225,1.3247,1.3255,1.3275,1.3278,1.3291,1.3303,1.3321,1.3339,1.3353,1.336,1.3351,1.3362,1.3357,1.3361,1.3361,1.3362,1.3349,1.3348,1.3348,1.3348,0,1.3132,1.3143,1.3155,1.317,1.318,1.3193,1.3207,1.3211,1.3237,1.3245,1.3258,1.3267,1.3286,1.3299,1.3316,1.3327,1.3342,1.3344,1.3344,1.3339,1.3332,1.3337,1.3365,1.3345,1.3345,1.3345,1.3345,1.3345,1.3109,1.3113,1.3133,1.3146,1.3159,1.3172,1.3179,1.3195,1.3206,1.3224,1.3236,1.3248,1.3267,1.3291,1.3301,1.3311,1.3318,1.3317,1.3317,1.3317,1.3315,1.3331,1.3314,1.3314,1.3314,1.3315,1.3315,0,1.3084,1.3098,1.3109,1.3129,1.314,1.3154,1.317,1.3178,1.3189,1.3205,1.3217,1.3232,1.3246,1.3266,1.3281,1.3285,1.3293,1.3289,1.3289,1.3291,1.3308,1.3307,1.3283,1.3283,1.3283,1.3283,1.3283,1.3283,1.3072,1.308,1.3093,1.3108,1.3122,1.3135,1.3144,1.3156,1.3169,1.3186,1.3198,1.3211,1.3229,1.3246,1.3259,1.3265,1.327,1.3264,1.3272,1.3287,1.329,1.3293,1.3292,1.3265,1.3265,1.3254,1.3254,1.3254]}]]